This is the latest recevied weather packets stored in our database for station/object KO4APQ. If no packets are shown the sender has not sent any weather packets the latest 10 day(s).
| Time | Temp. | Humidity | Pressure | Rain* | Wind** | Luminosity | Snow |
|---|---|---|---|---|---|---|---|
| 1777601330 | 15.56° C | 68% | 1012.8 hPa | 0 mm | - | 0 W/m² | - |
| 1777601027 | 16.11° C | 64% | 1012.8 hPa | 0 mm | - | 0 W/m² | - |
| 1777600724 | 16.11° C | 62% | 1012.6 hPa | 0 mm | - | 0 W/m² | - |
| 1777600420 | 16.11° C | 62% | 1012.4 hPa | 0 mm | - | 0 W/m² | - |
| 1777600116 | 16.11° C | 60% | 1012.3 hPa | 0 mm | - | 0 W/m² | - |
| 1777599812 | 16.11° C | 58% | 1012.4 hPa | 0 mm | - | 0 W/m² | - |
| 1777599507 | 16.11° C | 58% | 1012.2 hPa | 0 mm | - | 0 W/m² | - |
| 1777599205 | 16.67° C | 60% | 1012 hPa | 0 mm | - | 0 W/m² | - |
| 1777598901 | 16.67° C | 57% | 1012 hPa | 0 mm | - | 0 W/m² | - |
| 1777598598 | 16.67° C | 60% | 1012.1 hPa | 0 mm | - | 0 W/m² | - |
| 1777598294 | 17.22° C | 57% | 1011.8 hPa | 0 mm | - | 0 W/m² | - |
| 1777597992 | 17.22° C | 57% | 1011.7 hPa | 0 mm | - | 0 W/m² | - |
| 1777597691 | 17.22° C | 55% | 1011.7 hPa | 0 mm | - | 0 W/m² | - |
| 1777597387 | 17.78° C | 54% | 1011.6 hPa | 0 mm | - | 0 W/m² | - |
| 1777597082 | 17.78° C | 56% | 1011.6 hPa | 0 mm | - | 0 W/m² | - |
| 1777596779 | 18.33° C | 50% | 1011.6 hPa | 0 mm | - | 0 W/m² | - |
| 1777596475 | 18.33° C | 50% | 1011.3 hPa | 0 mm | - | 0 W/m² | - |
| 1777596173 | 18.33° C | 51% | 1011.4 hPa | 0 mm | - | 0 W/m² | - |
| 1777595870 | 18.33° C | 53% | 1011.2 hPa | 0 mm | - | 0 W/m² | - |
| 1777595569 | 18.33° C | 52% | 1011 hPa | 0 mm | - | 0 W/m² | - |
| 1777595266 | 18.33° C | 51% | 1011 hPa | 0 mm | - | 1 W/m² | - |
| 1777594962 | 18.89° C | 52% | 1010.7 hPa | 0 mm | - | 2 W/m² | - |
| 1777594658 | 18.89° C | 51% | 1010.7 hPa | 0 mm | - | 3 W/m² | - |
| 1777594356 | 18.89° C | 52% | 1010.7 hPa | 0 mm | - | 6 W/m² | - |
| 1777594051 | 19.44° C | 50% | 1010.6 hPa | 0 mm | - | 9 W/m² | - |
* Rain latest hour (hover to see other rain measurements)
** Current wind speed in m/s (hover to see current wind gust speed)